Weather History for Plattsburgh, NY

Change the Weather History Date:

Monday, January 23, 2012

  Actual Average Record
Temperature  
Mean Temperature 34 °F 16 °F  
Max Temperature 43 °F 27 °F 47 °F (1957)
Min Temperature 24 °F 5 °F -25 °F (1976)
Degree Days  
Heating Degree Days 31 49  
Month to date heating degree days 1021 1102  
Since 1 July heating degree days 3423 3988  
Cooling Degree Days 0 0  
Month to date cooling degree days 0  
Year to date cooling degree days 0  
Moisture  
Dew Point 31 °F    
Average Humidity 78    
Maximum Humidity 93    
Minimum Humidity 63    
Precipitation  
Precipitation 0.02 in - 1.30 in (1987)
Month to date precipitation 0.94  
Year to date precipitation 0.94  
Sea Level Pressure  
Sea Level Pressure 29.97 in    
Wind  
Wind Speed 14 mph (SSE)    
Max Wind Speed 28 mph    
Max Gust Speed 33 mph    
Visibility 10 miles    
Events Rain    
T = Trace of Precipitation, MM = Missing Value Source: NWS Daily Summary

Daily Weather History Graph

Daily Weather History Graph

Search for Another Location

Airport:

Trip Planner

Search our weather history database for the weather conditions in past years. The results will help you decide how hot, cold, wet, or windy it might be!

Date:

Astronomy

Jan. 23, 2012 Rise Set
Actual Time 7:22 AM EST 4:49 PM EST
Civil Twilight 6:50 AM EST 5:21 PM EST
Nautical Twilight 6:14 AM EST 5:56 PM EST
Astronomical Twilight 5:40 AM EST 6:31 PM EST
Moon 7:13 AM EST (1/23) 5:37 PM EST (1/23)
Length of Visible Light 10h 30m
Length of Day
9h 27m
New Moon, 0% of the Moon is Illuminated
Jan 23
New Moon
Jan 30
First Quarter
Feb 7
Full
Feb 14
Last Quarter
Feb 21
New

Hourly Weather History & Observations

Time (EST) Temp. Windchill Dew Point Humidity Pressure Visibility Wind Dir Wind Speed Gust Speed Precip Events Conditions
12:53 AM 25.0 °F 16.3 °F 17.1 °F 72% 30.30 in 10.0 mi South 8.1 mph - N/A   Clear
1:53 AM 25.0 °F 19.3 °F 18.0 °F 75% 30.29 in 10.0 mi South 4.6 mph - N/A   Clear
2:53 AM 28.0 °F 18.6 °F 19.9 °F 72% 30.27 in 10.0 mi South 10.4 mph - N/A   Clear
3:53 AM 27.0 °F 17.3 °F 19.9 °F 75% 30.23 in 10.0 mi SSE 10.4 mph - N/A   Clear
4:53 AM 27.0 °F 16.7 °F 19.9 °F 75% 30.21 in 10.0 mi SSE 11.5 mph - N/A   Clear
5:53 AM 27.0 °F 16.7 °F 21.0 °F 78% 30.19 in 10.0 mi SSE 11.5 mph - N/A   Clear
8:53 AM 30.9 °F 26.2 °F 23.0 °F 72% 30.14 in 10.0 mi South 4.6 mph - N/A   Clear
9:53 AM 35.1 °F 26.4 °F 27.0 °F 72% 30.14 in 10.0 mi SSE 12.7 mph - N/A   Clear
10:53 AM 37.0 °F 28.1 °F 28.0 °F 70% 30.13 in 10.0 mi SSE 15.0 mph - N/A   Clear
11:53 AM 37.9 °F 29.2 °F 30.0 °F 73% 30.08 in 10.0 mi SSE 15.0 mph 24.2 mph N/A   Clear
12:53 PM 37.0 °F 27.7 °F 30.0 °F 76% 30.03 in 10.0 mi SSE 16.1 mph 26.5 mph N/A   Partly Cloudy
1:53 PM 37.0 °F 27.4 °F 30.9 °F 79% 29.98 in 10.0 mi SSE 17.3 mph 26.5 mph N/A   Partly Cloudy
2:53 PM 37.0 °F 26.4 °F 32.0 °F 82% 29.96 in 10.0 mi SE 20.7 mph 28.8 mph N/A   Mostly Cloudy
3:53 PM 37.9 °F 28.9 °F 33.1 °F 83% 29.92 in 10.0 mi South 16.1 mph 21.9 mph N/A   Overcast
4:53 PM 39.0 °F 29.9 °F 35.1 °F 86% 29.89 in 10.0 mi SSE 17.3 mph - 0.00 in Rain Light Rain
5:53 PM 37.9 °F 28.5 °F 36.0 °F 93% 29.85 in 10.0 mi SSE 17.3 mph - 0.02 in Rain Light Rain
6:53 PM 42.1 °F 33.1 °F 37.9 °F 85% 29.82 in 10.0 mi SSE 20.7 mph - 0.00 in   Overcast
7:53 PM 43.0 °F 34.0 °F 37.9 °F 82% 29.78 in 10.0 mi SSE 21.9 mph - 0.00 in   Overcast
8:53 PM 43.0 °F 33.5 °F 39.0 °F 86% 29.75 in 10.0 mi SSE 24.2 mph 33.4 mph N/A   Overcast
9:53 PM 39.9 °F 31.1 °F 37.9 °F 93% 29.74 in 10.0 mi SSE 17.3 mph - N/A   Mostly Cloudy
10:03 PM 39.2 °F 30.2 °F 37.4 °F 93% 29.73 in 10.0 mi SSE 17.3 mph 24.2 mph N/A   Mostly Cloudy
10:18 PM 39.2 °F 29.0 °F 37.4 °F 93% 29.71 in 10.0 mi SSE 21.9 mph 27.6 mph N/A   Mostly Cloudy
10:27 PM 39.2 °F 29.8 °F 37.4 °F 93% 29.72 in 10.0 mi SSE 18.4 mph 27.6 mph N/A   Scattered Clouds
10:53 PM 41.0 °F 33.5 °F 39.0 °F 93% 29.73 in 10.0 mi SSE 13.8 mph 21.9 mph N/A   Clear
11:53 PM 39.9 °F 31.8 °F 39.0 °F 97% 29.71 in 10.0 mi SE 15.0 mph - N/A   Overcast